Home   Weather   Kunming   Past weeks
Flag for China

Past Weather in Kunming, Yunnan, China — Yesterday and Last 2 Weeks

Now
45 °F

Sunny.


Feels Like: 40 °F
Forecast: 69 / 44 °F
Wind: 8 mph from Southwest

Location: Kunming Airport

Current Time: Feb 24, 2019 at 9:12:17 am

Latest Report: Feb 24, 2019 at 8:00 am


Visibility: 10 mi

Pressure: 30.09 "Hg (23.84 "Hg at 1909m altitude)

Humidity: 66%

Dew Point: 34 °F

Location of KunmingLocation

Past Weather in Kunming — Graph

°F

Kunming Temperature Yesterday

Maximum temperature yesterday: 66 °F (at 4:00 pm)
Minimum temperature yesterday: 45 °F (at 6:00 am)
Average temperature yesterday: 56 °F

High & Low Weather Summary for the Past Weeks

 TemperatureHumidityPressure
High73 °F (Feb 9, 3:00 pm)87% (Feb 11, 8:00 am)30.36 "Hg (Feb 11, 8:00 am)
Low41 °F (Feb 19, 8:00 am)17% (Feb 13, 4:00 pm)29.89 "Hg (Feb 17, 6:00 pm)
Average55 °F49%30.14 "Hg
* Reported Feb 9 8:00 am — Feb 24 8:00 am, Kunming. Weather by CustomWeather, © 2019

Note: Actual official high and low records may vary slightly from our data, if they occured in-between our weather recording intervals... More about our weather records

Advertising

Kunming Weather History for the Previous 24 Hours

Scroll right to see more
 ConditionsComfort  
Time TempWeatherWind HumidityBarometerVisibility
8:00 am
Sun, Feb 24
45 °FSunny.8 mph66%30.09 "Hg10 mi
7:00 am43 °FClear.10 mph71%30.09 "Hg10 mi
6:00 am43 °FClear.6 mph76%30.07 "Hg10 mi
5:00 am48 °FClear.6 mph62%30.07 "Hg10 mi
4:00 am50 °FClear.6 mph62%30.07 "Hg10 mi
3:00 am46 °FClear.3 mph76%30.07 "Hg10 mi
2:00 am50 °FClear.1 mph67%30.07 "Hg10 mi
1:00 am50 °FClear.6 mph67%30.07 "Hg10 mi
12:00 am52 °FClear.13 mph62%30.09 "Hg10 mi
11:00 pm
Sat, Feb 23
52 °FPassing clouds.15 mph62%30.07 "HgN/A
10:00 pm54 °FPassing clouds.13 mph54%30.07 "HgN/A
9:00 pm57 °FPassing clouds.20 mph44%30.04 "HgN/A
8:00 pm59 °FPassing clouds.17 mph42%30.01 "HgN/A
7:00 pm61 °FScattered clouds.22 mph36%30.01 "HgN/A
6:00 pm61 °FScattered clouds.20 mph36%29.98 "HgN/A
5:00 pm64 °FPartly sunny.24 mph34%29.95 "HgN/A
4:00 pm66 °FScattered clouds.24 mph30%29.95 "HgN/A
3:00 pm64 °FPartly sunny.15 mph32%29.95 "HgN/A
2:00 pm63 °FPartly sunny.17 mph37%30.01 "HgN/A
1:00 pm61 °FScattered clouds.15 mph42%30.01 "HgN/A
12:00 pm57 °FScattered clouds.17 mph48%30.07 "HgN/A
11:00 am57 °FScattered clouds.17 mph51%30.09 "HgN/A
10:00 am54 °FScattered clouds.10 mph63%30.09 "Hg5 mi
9:00 am50 °FMore clouds than sun.8 mph71%30.09 "HgN/A
Weather by CustomWeather, © 2019

See weather overview